Weather History for Kota Bharu, Malaysia

Change the Weather History Date:

Thursday, January 23, 2014

  Actual Average Record
Temperature  
Mean Temperature 75 °F -  
Max Temperature 82 °F 86 °F - ()
Min Temperature 68 °F 73 °F - ()
Cooling Degree Days 10    
Growing Degree Days 25 (Base 50)    
Moisture  
Dew Point 67 °F    
Average Humidity 69    
Maximum Humidity 78    
Minimum Humidity 55    
Precipitation  
Precipitation 0.00 in 0.09 in - ()
Sea Level Pressure  
Sea Level Pressure 29.96 in    
Wind  
Wind Speed 9 mph ()    
Max Wind Speed 12 mph    
Max Gust Speed -    
Visibility 6.4 miles    
Events      
T = Trace of Precipitation, MM = Missing Value Source: Averaged Metar Reports

Daily Weather History Graph

Daily Weather History Graph

Search for Another Location

Airport:

Trip Planner

Search our weather history database for the weather conditions in past years. The results will help you decide how hot, cold, wet, or windy it might be!

Date:

Astronomy

Jan. 23, 2014 Rise Set
Actual Time 7:27 AM MYT 7:17 PM MYT
Civil Twilight 7:05 AM MYT 7:39 PM MYT
Nautical Twilight 6:40 AM MYT 8:05 PM MYT
Astronomical Twilight 6:14 AM MYT 8:30 PM MYT
Moon No Moon Rise 12:11 PM MYT (1/23)
Length of Visible Light 12h 33m
Length of Day
11h 49m
Waning Gibbous, 61% of the Moon is Illuminated
Jan 23
Waning Gibbous
Jan 24
Last Quarter
Jan 31
New
Feb 7
First Quarter
Feb 15
Full

Hourly Weather History & Observations

Time (MYT) Temp. Heat Index Dew Point Humidity Pressure Visibility Wind Dir Wind Speed Gust Speed Precip Events Conditions
12:00 AM 77.0 °F - 68.0 °F 74% 29.98 in 6.2 mi East 9.2 mph - N/A   Mostly Cloudy
1:00 AM 77.0 °F - 69.8 °F 78% 29.98 in 6.2 mi ENE 10.4 mph - N/A   Mostly Cloudy
2:00 AM 76 °F - 68 °F 70% 29.97 in 7 mi East 11.5 mph - -   Haze
2:00 AM 77.0 °F - 68.0 °F 74% 29.95 in 6.2 mi East 11.5 mph - N/A   Mostly Cloudy
3:00 AM 77.0 °F - 68.0 °F 74% 29.95 in 6.2 mi East 11.5 mph - N/A   Mostly Cloudy
4:00 AM 75.2 °F - 68.0 °F 78% 29.92 in 6.2 mi East 9.2 mph - N/A   Mostly Cloudy
5:00 AM 75 °F - 67 °F 70% 29.93 in 7 mi East 11.5 mph - -   Haze
5:00 AM 75.2 °F - 68.0 °F 78% 29.92 in 6.2 mi East 11.5 mph - N/A   Mostly Cloudy
6:00 AM 75.2 °F - 66.2 °F 73% 29.92 in 6.2 mi East 8.1 mph - N/A   Mostly Cloudy
7:00 AM 75.2 °F - 66.2 °F 73% 29.95 in 6.2 mi East 10.4 mph - N/A   Mostly Cloudy
8:00 AM 75 °F - 66 °F 65% 29.98 in 7 mi East 6.9 mph - -   Haze
8:00 AM 75.2 °F - 66.2 °F 73% 29.98 in 6.2 mi East 6.9 mph - N/A   Mostly Cloudy
9:00 AM 77.0 °F - 66.2 °F 69% 30.01 in 6.2 mi East 8.1 mph - N/A   Mostly Cloudy
10:00 AM 78.8 °F - 66.2 °F 65% 30.01 in 6.2 mi East 8.1 mph - N/A   Mostly Cloudy
11:00 AM 79 °F - 66 °F 55% 30.03 in 8 mi East 9.2 mph - -   Haze
11:00 AM 78.8 °F - 66.2 °F 65% 30.01 in 6.2 mi East 9.2 mph - N/A   Mostly Cloudy
12:00 PM 80.6 °F 82.7 °F 66.2 °F 61% 30.01 in 6.2 mi East 10.4 mph - N/A   Mostly Cloudy
1:00 PM 80.6 °F 83.2 °F 68.0 °F 65% 30.01 in 6.2 mi East 10.4 mph - N/A   Mostly Cloudy
2:00 PM 80 °F - 67 °F 55% 29.97 in 7 mi ENE 11.5 mph - -   Haze
2:00 PM 80.6 °F 82.7 °F 66.2 °F 61% 29.95 in 6.2 mi ENE 11.5 mph - N/A   Mostly Cloudy
3:00 PM 82.4 °F 85.4 °F 68.0 °F 62% 29.92 in 6.2 mi East 11.5 mph - N/A   Mostly Cloudy
4:00 PM 80.6 °F 83.2 °F 68.0 °F 65% 29.89 in 6.2 mi ENE 10.4 mph - N/A   Mostly Cloudy
5:00 PM 80 °F - 68 °F 58% 29.90 in 7 mi ENE 10.4 mph - -   Haze
5:00 PM 80.6 °F 83.2 °F 68.0 °F 65% 29.89 in 6.2 mi ENE 10.4 mph - N/A   Mostly Cloudy
6:00 PM 78.8 °F - 68.0 °F 69% 29.89 in 6.2 mi East 11.5 mph - N/A   Mostly Cloudy
7:00 PM 77.0 °F - 68.0 °F 74% 29.92 in 6.2 mi ENE 8.1 mph - N/A   Mostly Cloudy
8:00 PM 76 °F - 68 °F 71% 29.95 in 7 mi East 4.6 mph - -   Haze
8:00 PM 75.2 °F - 68.0 °F 78% 29.95 in 6.2 mi East 4.6 mph - N/A   Mostly Cloudy
9:00 PM 75.2 °F - 68.0 °F 78% 29.98 in 6.2 mi East 4.6 mph - N/A   Mostly Cloudy
10:00 PM 77.0 °F - 68.0 °F 74% 29.98 in 6.2 mi ENE 10.4 mph - N/A   Mostly Cloudy
11:00 PM 77 °F - 68 °F 67% 30.00 in 7 mi ENE 9.2 mph - -   Haze
11:00 PM 77.0 °F - 68.0 °F 74% 29.98 in 6.2 mi ENE 9.2 mph - N/A   Mostly Cloudy